When you browse on this site, cookies collect data to enhance your experience and personalize the content and advertising you see.
Visit our Privacy Policy to learn more. By continuing to use the site, you agree to this use of cookies and data.
  • In Austria
  • List of Countries
  • For 7 days
  • Water Temperature
  • Weather Map
  • News
  • Weather Widgets
  • user-avatar
    Login

    Hourly Weather Bragansa

    Today, 19 September, Thursday

    Time Temperature Precipitation Wind Pressure Humidity
    00:00 +22°C° 0 mm 1 mps 714 mmHg 50%
    01:00 +22°C° 0 mm 1 mps 714 mmHg 54%
    02:00 +21°C° 0 mm 1 mps 714 mmHg 58%
    03:00 +20°C° 0 mm 1 mps 714 mmHg 62%
    04:00 +20°C° 0 mm 1 mps 714 mmHg 65%
    05:00 +19°C° 0 mm 2 mps 714 mmHg 69%
    06:00 +18°C° 0 mm 2 mps 714 mmHg 73%
    07:00 +20°C° 0 mm 2 mps 714 mmHg 66%
    08:00 +23°C° 0 mm 2 mps 715 mmHg 59%
    09:00 +24°C° 0 mm 2 mps 715 mmHg 52%
    10:00 +26°C° 0 mm 1 mps 715 mmHg 46%
    11:00 +28°C° 0 mm 1 mps 715 mmHg 40%
    12:00 +30°C° 0 mm 1 mps 715 mmHg 33%
    13:00 +30°C° 0 mm 1 mps 714 mmHg 32%
    14:00 +30°C° 0 mm 1 mps 714 mmHg 30%
    15:00 +30°C° 0 mm 1 mps 714 mmHg 29%
    16:00 +30°C° 0 mm 1 mps 713 mmHg 30%
    17:00 +29°C° 0 mm 1 mps 713 mmHg 32%
    18:00 +28°C° 0 mm 1 mps 713 mmHg 34%
    19:00 +27°C° 0 mm 1 mps 713 mmHg 37%
    20:00 +26°C° 0 mm 1 mps 713 mmHg 40%
    21:00 +25°C° 0 mm 1 mps 714 mmHg 44%
    22:00 +24°C° 0 mm 1 mps 713 mmHg 49%
    23:00 +23°C° 0 mm 1 mps 713 mmHg 54%

    Tomorrow, 20 September, Friday

    Time Temperature Precipitation Wind Pressure Humidity
    00:00 +22°C° 0 mm 1 mps 713 mmHg 59%
    01:00 +21°C° 0 mm 1 mps 712 mmHg 62%
    02:00 +19°C° 0 mm 0 mps 712 mmHg 65%
    03:00 +18°C° 0 mm 0 mps 712 mmHg 69%
    04:00 +18°C° 0 mm 0 mps 712 mmHg 70%
    05:00 +17°C° 0 mm 0 mps 711 mmHg 72%
    06:00 +17°C° 0 mm 0 mps 711 mmHg 74%
    07:00 +19°C° 0 mm 0 mps 712 mmHg 67%
    08:00 +22°C° 0 mm 1 mps 712 mmHg 60%
    09:00 +24°C° 0 mm 1 mps 712 mmHg 53%
    10:00 +26°C° 0 mm 2 mps 712 mmHg 46%
    11:00 +28°C° 0 mm 2 mps 712 mmHg 39%
    12:00 +29°C° 0 mm 3 mps 712 mmHg 32%
    13:00 +29°C° 0 mm 4 mps 711 mmHg 31%
    14:00 +29°C° 0 mm 4 mps 711 mmHg 30%
    15:00 +29°C° 0 mm 5 mps 711 mmHg 29%
    16:00 +28°C° 0 mm 5 mps 710 mmHg 31%
    17:00 +27°C° 0 mm 5 mps 710 mmHg 34%
    18:00 +26°C° 0 mm 5 mps 710 mmHg 36%
    19:00 +23°C° 0 mm 4 mps 710 mmHg 40%
    20:00 +22°C° 0 mm 3 mps 710 mmHg 44%
    21:00 +21°C° 0 mm 2 mps 711 mmHg 48%
    22:00 +20°C° 0 mm 2 mps 710 mmHg 51%
    23:00 +19°C° 0 mm 2 mps 710 mmHg 54%

    Day after tomorrow, 21 September, Saturday

    Time Temperature Precipitation Wind Pressure Humidity
    00:00 +20°C° 0 mm 1 mps 709 mmHg 56%
    01:00 +19°C° 0 mm 1 mps 709 mmHg 58%
    02:00 +19°C° 0 mm 1 mps 709 mmHg 60%
    03:00 +18°C° 0 mm 1 mps 708 mmHg 61%
    04:00 +17°C° 0 mm 2 mps 708 mmHg 63%
    05:00 +17°C° 0 mm 2 mps 708 mmHg 64%
    06:00 +18°C° 0 mm 3 mps 707 mmHg 66%
    07:00 +18°C° 0.6 mm 4 mps 707 mmHg 70%
    08:00 +17°C° 0.6 mm 5 mps 708 mmHg 74%
    09:00 +17°C° 0.6 mm 6 mps 708 mmHg 79%
    10:00 +17°C° 0.8 mm 6 mps 707 mmHg 79%
    11:00 +17°C° 0.8 mm 6 mps 707 mmHg 79%
    12:00 +17°C° 0.8 mm 6 mps 707 mmHg 80%
    13:00 +17°C° 0.4 mm 6 mps 707 mmHg 80%
    14:00 +17°C° 0.4 mm 6 mps 707 mmHg 81%
    15:00 +17°C° 0.4 mm 6 mps 707 mmHg 82%
    16:00 +17°C° 0.6 mm 6 mps 707 mmHg 80%
    17:00 +17°C° 0.6 mm 6 mps 707 mmHg 78%
    18:00 +17°C° 0.6 mm 6 mps 707 mmHg 77%
    19:00 +16°C° 0 mm 5 mps 708 mmHg 79%
    20:00 +14°C° 0 mm 4 mps 708 mmHg 82%
    21:00 +13°C° 0 mm 3 mps 709 mmHg 85%
    22:00 +13°C° 0 mm 3 mps 709 mmHg 86%
    23:00 +12°C° 0 mm 3 mps 709 mmHg 87%

    22 September, Sunday

    Time Temperature Precipitation Wind Pressure Humidity
    00:00 +12°C° 0 mm 3 mps 710 mmHg 89%
    01:00 +11°C° 0 mm 3 mps 710 mmHg 89%
    02:00 +12°C° 0 mm 2 mps 710 mmHg 90%
    03:00 +10°C° 0 mm 2 mps 711 mmHg 91%
    04:00 +10°C° 0 mm 2 mps 711 mmHg 91%
    05:00 +10°C° 0 mm 2 mps 711 mmHg 91%
    06:00 +10°C° 0 mm 2 mps 711 mmHg 91%
    07:00 +12°C° 0 mm 2 mps 712 mmHg 84%
    08:00 +13°C° 0 mm 3 mps 712 mmHg 77%
    09:00 +14°C° 0 mm 3 mps 713 mmHg 69%
    10:00 +16°C° 0 mm 3 mps 713 mmHg 64%
    11:00 +17°C° 0 mm 4 mps 713 mmHg 58%
    12:00 +18°C° 0 mm 4 mps 714 mmHg 53%
    13:00 +19°C° 0 mm 4 mps 714 mmHg 50%
    14:00 +19°C° 0 mm 4 mps 714 mmHg 47%
    15:00 +20°C° 0 mm 4 mps 714 mmHg 44%
    16:00 +19°C° 0 mm 4 mps 714 mmHg 47%
    17:00 +18°C° 0 mm 4 mps 714 mmHg 50%
    18:00 +18°C° 0 mm 3 mps 714 mmHg 52%
    19:00 +17°C° 0 mm 3 mps 714 mmHg 57%
    20:00 +15°C° 0 mm 2 mps 715 mmHg 62%
    21:00 +14°C° 0 mm 2 mps 715 mmHg 67%
    22:00 +14°C° 0 mm 1 mps 715 mmHg 69%
    23:00 +14°C° 0 mm 1 mps 715 mmHg 71%

    23 September, Monday

    Time Temperature Precipitation Wind Pressure Humidity
    00:00 +13°C° 0 mm 1 mps 715 mmHg 73%
    01:00 +13°C° 0 mm 1 mps 715 mmHg 75%
    02:00 +13°C° 0 mm 1 mps 715 mmHg 76%
    03:00 +12°C° 0 mm 0 mps 715 mmHg 77%
    04:00 +11°C° 0 mm 0 mps 715 mmHg 78%
    05:00 +12°C° 0 mm 1 mps 715 mmHg 79%
    06:00 +12°C° 0 mm 1 mps 715 mmHg 80%
    07:00 +13°C° 0 mm 1 mps 715 mmHg 73%
    08:00 +15°C° 0 mm 1 mps 716 mmHg 65%
    09:00 +16°C° 0 mm 1 mps 716 mmHg 58%
    10:00 +18°C° 0 mm 2 mps 716 mmHg 52%
    11:00 +20°C° 0 mm 2 mps 716 mmHg 45%
    12:00 +22°C° 0 mm 3 mps 716 mmHg 39%
    13:00 +24°C° 0 mm 3 mps 716 mmHg 37%
    14:00 +25°C° 0 mm 3 mps 716 mmHg 35%
    15:00 +26°C° 0 mm 3 mps 715 mmHg 33%
    16:00 +25°C° 0 mm 3 mps 715 mmHg 36%
    17:00 +24°C° 0 mm 2 mps 715 mmHg 38%
    18:00 +23°C° 0 mm 2 mps 715 mmHg 41%
    19:00 +21°C° 0 mm 2 mps 715 mmHg 45%
    20:00 +21°C° 0 mm 1 mps 716 mmHg 49%
    21:00 +19°C° 0 mm 1 mps 716 mmHg 53%
    22:00 +19°C° 0 mm 1 mps 716 mmHg 56%
    23:00 +18°C° 0 mm 1 mps 715 mmHg 59%

    24 September, Tuesday

    Time Temperature Precipitation Wind Pressure Humidity
    00:00 +18°C° 0 mm 1 mps 715 mmHg 62%
    01:00 +16°C° 0 mm 1 mps 715 mmHg 64%
    02:00 +16°C° 0 mm 1 mps 715 mmHg 67%
    03:00 +14°C° 0 mm 0 mps 714 mmHg 69%
    04:00 +14°C° 0 mm 0 mps 714 mmHg 71%
    05:00 +14°C° 0 mm 0 mps 714 mmHg 73%
    06:00 +13°C° 0 mm 0 mps 714 mmHg 74%
    07:00 +16°C° 0 mm 1 mps 714 mmHg 67%
    08:00 +19°C° 0 mm 1 mps 714 mmHg 60%
    09:00 +21°C° 0 mm 1 mps 715 mmHg 53%
    10:00 +23°C° 0 mm 2 mps 715 mmHg 47%
    11:00 +24°C° 0 mm 3 mps 715 mmHg 40%
    12:00 +26°C° 0 mm 3 mps 715 mmHg 33%
    13:00 +27°C° 0 mm 4 mps 714 mmHg 31%
    14:00 +28°C° 0 mm 5 mps 714 mmHg 28%
    15:00 +28°C° 0 mm 5 mps 713 mmHg 26%
    16:00 +27°C° 0 mm 5 mps 713 mmHg 30%
    17:00 +26°C° 0 mm 4 mps 713 mmHg 34%
    18:00 +23°C° 0 mm 4 mps 713 mmHg 38%
    19:00 +22°C° 0 mm 3 mps 713 mmHg 46%
    20:00 +20°C° 0 mm 2 mps 712 mmHg 53%
    21:00 +18°C° 0 mm 2 mps 712 mmHg 61%
    22:00 +18°C° 0 mm 2 mps 712 mmHg 64%
    23:00 +17°C° 0 mm 2 mps 712 mmHg 67%
    Show more